This is the latest recevied weather packets stored in our database for station/object OH7GGX-14. If no packets are shown the sender has not sent any weather packets the latest 10 day(s).
| Time | Temp. | Humidity | Pressure | Rain* | Wind** | Luminosity | Snow |
|---|---|---|---|---|---|---|---|
| 1788026816 | 14.44° C | 99% | 1020.6 hPa | 0 mm | - | - | - |
| 1788026215 | 14.44° C | 99% | 1020.7 hPa | 0 mm | - | - | - |
| 1788025616 | 14.44° C | 99% | 1020.7 hPa | 0 mm | - | - | - |
| 1788025016 | 14.44° C | 99% | 1020.7 hPa | 0 mm | - | - | - |
| 1788024416 | 14.44° C | 99% | 1020.7 hPa | 0 mm | - | - | - |
| 1788023816 | 14.44° C | 99% | 1020.7 hPa | 0 mm | - | - | - |
| 1788023216 | 15° C | 99% | 1020.8 hPa | 0 mm | - | - | - |
| 1788022616 | 15° C | 99% | 1020.9 hPa | 0 mm | - | - | - |
| 1788022016 | 15.56° C | 99% | 1020.8 hPa | 0 mm | - | - | - |
| 1788021416 | 16.11° C | 99% | 1021 hPa | 0 mm | - | - | - |
| 1788020816 | 16.11° C | 99% | 1020.9 hPa | 0 mm | - | - | - |
| 1788020216 | 16.67° C | 97% | 1021.1 hPa | 0 mm | - | - | - |
| 1788019616 | 17.22° C | 93% | 1021 hPa | 0 mm | - | - | - |
| 1788019016 | 17.22° C | 91% | 1021 hPa | 0 mm | - | - | - |
| 1788018416 | 17.22° C | 88% | 1021 hPa | 0 mm | - | - | - |
| 1788017816 | 17.78° C | 87% | 1021.2 hPa | 0 mm | - | - | - |
| 1788017216 | 17.78° C | 86% | 1021.3 hPa | 0 mm | - | - | - |
| 1788016616 | 17.78° C | 86% | 1021.4 hPa | 0 mm | - | - | - |
| 1788016016 | 17.78° C | 84% | 1021.5 hPa | 0 mm | - | - | - |
| 1788015416 | 18.33° C | 80% | 1021.6 hPa | 0 mm | - | - | - |
| 1788014816 | 18.33° C | 80% | 1021.7 hPa | 0 mm | - | - | - |
| 1788014216 | 18.33° C | 78% | 1021.9 hPa | 0 mm | - | - | - |
| 1788013616 | 18.33° C | 81% | 1022 hPa | 0 mm | - | - | - |
| 1788013016 | 17.78° C | 80% | 1022 hPa | 0 mm | - | - | - |
| 1788012416 | 17.78° C | 79% | 1022.1 hPa | 0 mm | - | - | - |
* Rain latest hour (hover to see other rain measurements)
** Current wind speed in m/s (hover to see current wind gust speed)